COSMOS 864

导读

**COSMOS 864卫星摘要** COSMOS 864(宇宙864)是苏联/俄罗斯"宇宙"系列卫星之一,于1976年10月29日发射。"宇宙"系列是世界上规模最大的卫星家族,涵盖多领域任务,多数承担军事用途,编号包含大量试验任务及失利探测器。该系列通过统一编号模糊任务属性,增强保密性,为苏联航天探索积累了重要技术经验,是冷战时期航天发展的典型见证。

基本信息
目录编号:
9509
目录名称:
COSMOS 864
国际标识:
1976-108A
轨道中心:
EARTH
卫星名称:
COSMOS 864
卫星全名:
--
卫星状态:
在轨 (已飞行18214 天)
发射日期:
1976-10-29 UTC
国别 :
俄罗斯(独联体) (CIS)
星等 :
--
该卫星已列入 空间交会检测服务 Space Conjunction Data Service (SCDS) ,当前飞行风险评估等级: 高风险
轨道信息
数据来源 国际轨道数据 AOE轨道数据
星历时间 2026-09-11T00:03:32+0800
15小时前
查看轨道信息
2026-09-09T22:00:00+0800
1天前
查看轨道信息
半长轴 7357.721km 7357.721km
偏心率 0.0028521 0.0028618
轨道倾角 82.936° 82.936°
近地点辐角 265.890° 268.968°
升交点赤经 86.174° 86.979°
平近点角 164.744° 187.774°
近地点 958.599km 958.527km
远地点 1000.569km 1000.641km
周期 104.683分钟 104.683分钟
每日圈数 13.755862 13.755864
详细信息
使用方式:
暂无
2D轨道图
3D轨道图
轨道高度分析图
轨道倾角分析图
轨道综合分析图
查看轨道综合分析图
与全量物体交会距离演化趋势
与全量物体交会风险概率演化趋势